#timestamp,LO_Frequency,Hit 
1504512015.5,286046997.6,N
1504512035.3,286046996.2,N
1504512055.5,286046991.6,P
1504512075.4,286046994.4,N
1504512095.2,286046997.4,N
1504512115.0,286047002.8,N
1504512115.9,286047002.8,N
1504512135.7,286046999.1,N
1504512155.6,286046998.0,N
1504512175.4,286046996.1,N
1504512195.2,286046999.0,N
1504512215.1,286046998.5,N
1504512216.0,286046998.5,N
1504512235.8,286046997.0,N
1504512255.6,286046998.9,N
1504512275.5,286046997.5,N
1504512295.3,286046997.6,N
1504512315.1,286046996.7,N
1504512335.9,286046995.1,N
1504512355.7,286046992.5,N
1504512375.5,286046994.2,N
1504512395.4,286046993.8,N
1504512415.2,286046992.8,N
1504512435.0,286046993.6,N
1504512435.9,286046993.6,N
1504512455.8,286046997.8,N
1504512475.6,286046998.2,N
1504512495.4,286047000.0,N
1504512515.3,286047000.7,N
1504512535.1,286046998.7,N
1504512536.0,286046998.7,N
1504512555.8,286047002.9,N
1504512575.7,286047003.5,N
1504512595.5,286046999.3,N
1504512615.3,286046999.7,N
1504512635.1,286047000.9,N
1504512655.9,286047000.1,N
1504512675.7,286046999.6,N
1504512695.5,286046994.9,N
1504512715.4,286046997.1,N
1504512735.2,286046994.9,N
1504512755.0,286046997.9,N
1504512755.9,286046997.9,N
1504512775.8,286046999.7,N
1504512795.6,286047002.3,N
1504512815.4,286046999.2,N
1504512835.1,286047000.5,N
1504512855.4,286047000.4,N
1504512875.2,286046998.5,N
1504512895.0,286047000.2,N
1504512895.9,286047000.2,N
1504512915.8,286047001.6,N
1504512935.6,286047000.4,N
1504512955.4,286047000.0,N
1504512975.3,286046999.7,N
1504512995.1,286046996.5,N
1504512996.0,286046996.5,N
1504513015.8,286046996.9,N
1504513035.7,286046997.1,N
1504513055.5,286047000.3,N
1504513075.3,286047002.3,N
1504513095.2,286047002.8,N
1504513115.9,286047002.4,N
1504513135.7,286046996.6,N
1504513155.6,286046999.0,N
1504513175.4,286046998.9,N
1504513195.2,286046998.9,N
1504513215.0,286046996.9,N
1504513215.9,286046996.9,N
1504513235.8,286046995.1,N
1504513255.6,286047000.8,N
1504513275.4,286047002.8,N
1504513295.3,286047002.7,N
1504513315.1,286047002.7,N
1504513335.8,286047002.8,N
1504513355.7,286047000.5,N
1504513375.5,286047000.0,N
1504513395.3,286047003.3,N
1504513415.2,286047007.6,P
1504513435.0,286047004.0,N
1504513435.9,286047004.0,N
1504513455.7,286047003.7,N
1504513475.6,286047003.0,N
1504513495.4,286047006.7,N
1504513515.2,286047006.9,N
1504513535.1,286047006.7,N
1504513536.0,286047006.7,N
1504513555.8,286047007.0,P
1504513575.7,286047001.8,N
1504513595.5,286047003.1,N
1504513615.3,286047001.5,N
1504513635.1,286047002.4,N
1504513655.9,286046998.5,N
1504513675.7,286046998.4,N
1504513695.5,286046998.9,N
1504513715.4,286047005.6,N
1504513735.2,286047004.2,N
1504513755.0,286047001.3,N
1504513755.9,286047001.3,N
1504513775.8,286046999.0,N
1504513795.6,286047000.8,N
1504513815.4,286047000.0,N
1504513835.3,286047004.0,N
1504513855.1,286047004.0,N
1504513856.0,286047004.0,N
1504513875.8,286047000.4,N
1504513895.7,286047003.4,N
1504513915.5,286047005.3,N
1504513935.3,286047004.9,N
1504513955.2,286047005.5,N
1504513975.9,286047004.6,N
1504513995.7,286047004.6,N
1504514015.5,286047003.4,N
1504514035.4,286047001.9,N
1504514055.2,286047002.1,N
1504514075.0,286047002.5,N
1504514075.9,286047002.5,N
1504514095.8,286046999.0,N
1504514115.6,286047000.0,N
1504514135.4,286047002.4,N
1504514155.3,286047001.2,N
1504514175.1,286046994.9,N
1504514195.8,286046995.3,N
1504514215.7,286046997.0,N
1504514235.5,286047000.6,N
1504514255.3,286046999.2,N
1504514275.2,286046998.0,N
1504514295.9,286046995.0,N
1504514315.7,286047000.3,N
1504514335.6,286047002.8,N
1504514355.4,286046998.1,N
1504514375.2,286046999.6,N
1504514395.1,286046996.1,N
1504514396.0,286046996.1,N
1504514415.8,286046993.6,N
1504514435.6,286046993.6,N
1504514455.4,286046995.0,N
1504514475.3,286046995.1,N
1504514495.1,286046996.5,N
1504514515.8,286047001.2,N
1504514535.7,286046998.2,N
1504514555.5,286046999.2,N
1504514575.3,286047000.2,N
1504514595.2,286046998.2,N
1504514615.9,286046999.4,N
1504514635.7,286047000.5,N
1504514655.6,286047001.4,N
1504514675.4,286047002.2,N
1504514695.2,286047000.2,N
1504514715.1,286046998.7,N
1504514716.0,286046998.7,N
1504514735.8,286047004.4,N
1504514755.6,286047003.5,N
1504514775.5,286047003.2,N
1504514795.3,286047004.3,N
1504514815.1,286047002.0,N
1504514835.9,286046999.2,N
1504514855.5,286046998.7,N
1504514875.3,286046995.2,N
1504514895.1,286046995.3,N
1504514915.9,286046996.0,N
1504514935.7,286046993.8,N
1504514955.5,286046996.6,N
1504514975.3,286046994.9,N
1504514995.2,286046998.6,N
1504515015.3,286046999.9,N
1504515035.2,286047002.4,N
1504515055.9,286047001.3,N
1504515075.8,286047002.5,N
1504515095.6,286046998.3,N
1504515115.5,286047002.7,N
1504515135.3,286046997.9,N
1504515155.1,286046997.1,N
1504515175.9,286046996.4,N
1504515195.7,286046994.1,N
1504515215.5,286046993.3,N
1504515235.3,286046994.9,N
1504515255.2,286047000.7,N
1504515275.0,286046997.0,N
1504515275.9,286046997.0,N
1504515295.7,286046998.4,N
1504515315.6,286046998.9,N
1504515335.4,286046996.5,N
1504515355.2,286046999.3,N
1504515375.1,286046998.5,N
1504515376.0,286046998.5,N
1504515395.8,286047001.5,N
1504515415.6,286047000.7,N
1504515435.5,286046995.5,N
1504515455.3,286046997.8,N
1504515475.1,286046997.5,N
1504515495.9,286046998.6,N
1504515515.7,286046998.7,N
1504515535.5,286047000.9,N
1504515555.4,286046998.2,N
1504515575.2,286046998.4,N
1504515595.0,286046998.9,N
1504515595.9,286046998.9,N
